Location: Le Hiès Ruisseau
(43.3000°N, 0.4500°W)
Time: 03:04:52
(UTC+00:00)

SJ-11-01 - Pass Details

Date: 28 January 2023
Orbit: 681 x 699 km, 97.9° (Epoch: 27 March)

Event Time Altitude Azimuth Distance (km) Brightness Sun altitude
Rises 17:30:44 0° 165° (SSE) 3,041 7.7 -4.7°
Reaches altitude 10° 17:32:57 10° 165° (SSE) 2,133 6.9 -5.0°
Maximum altitude 17:37:38 90° 107° (ESE) 698 4.3 -5.8°
Drops below altitude 10° 17:42:23 10° 347° (NNW) 2,161 6.8 -6.7°
Sets 17:44:39 0° 348° (NNW) 3,086 7.6 -7.1°
